Tracking 35331 objects as of 14-Sep-2026
HD Live streaming from Space Station
objects crossing your sky now

SPACEBEE-13


SPACEBEE-13 is no longer on orbit


NORAD ID: 46310
Int'l Code: 2020-061AQ
Launch date: September 3, 2020
Source: United States (US)
Launch site: FRENCH GUIANA (FRGUI)
Decay date: 2023-04-25
Your satellite tracking list
Your tracking list is empty




NASA's NSSDC Master Catalog

Two Line Element Set (TLE):
1 46310U 20061AQ  23114.09986349  .11309309  24498-5  38235-2 0  9993
2 46310  97.3714 194.0225 0014794 272.3349  87.6249 16.25346763146241
Source of the keplerian elements: AFSPC